"read_dt","SO2 (ppb)","flags","PMT voltage (V)","lamp voltage (V)","lamp intensity (Hz)","internal temp (C)","react chamber temp (C)","sample flow (l/min)","pres (mmHg)","SO2 bkg (ppb)","SO2 coefficient"
2014-07-06 00:00:00,1877E-3,5C000000,-0724,0835,12320,033.4,045.7,0.474,730.3,01.19,0.508
2014-07-06 00:01:00,1752E-3,5C000000,-0724,0836,12128,033.4,045.7,0.474,730.3,01.19,0.508
2014-07-06 00:02:00,1905E-3,5C000000,-0724,0836,12059,033.4,045.7,0.474,730.3,01.19,0.508
2014-07-06 00:03:00,1722E-3,5C000000,-0724,0836,12059,033.4,045.7,0.474,730.3,01.19,0.508
2014-07-06 00:04:00,1783E-3,5C000000,-0724,0836,12271,033.4,045.7,0.474,730.2,01.19,0.508
2014-07-06 00:05:00,1898E-3,5C000000,-0724,0836,12209,033.4,045.7,0.474,730.3,01.19,0.508
2014-07-06 00:06:00,1828E-3,5C000000,-0724,0836,12162,033.4,045.7,0.474,730.3,01.19,0.508
2014-07-06 00:07:00,1819E-3,5C000000,-0724,0835,12353,033.4,045.7,0.474,730.3,01.19,0.508
2014-07-06 00:08:00,1982E-3,5C000000,-0724,0837,12196,033.4,045.7,0.474,730.3,01.19,0.508
2014-07-06 00:09:00,1891E-3,5C000000,-0724,0835,12266,033.4,045.7,0.474,730.3,01.19,0.508
2014-07-06 00:10:00,1850E-3,5C000000,-0724,0836,12139,033.4,045.6,0.474,730.3,01.19,0.508
2014-07-06 00:11:00,1898E-3,5C000000,-0724,0836,12051,033.4,045.7,0.474,730.3,01.19,0.508
2014-07-06 00:12:00,1864E-3,5C000000,-0724,0836,12267,033.4,045.7,0.474,730.3,01.19,0.508
2014-07-06 00:13:00,1742E-3,5C000000,-0724,0836,12292,033.4,045.7,0.474,730.3,01.19,0.508
2014-07-06 00:14:00,1937E-3,5C000000,-0724,0835,12165,033.4,045.7,0.474,730.3,01.19,0.508
2014-07-06 00:15:00,2001E-3,5C000000,-0724,0837,12111,033.4,045.7,0.474,730.3,01.19,0.508
2014-07-06 00:16:00,1880E-3,5C000000,-0724,0836,12029,033.4,045.7,0.474,730.3,01.19,0.508
2014-07-06 00:17:00,1931E-3,5C000000,-0724,0835,12292,033.4,045.7,0.474,730.2,01.19,0.508
2014-07-06 00:18:00,1771E-3,5C000000,-0724,0835,11953,033.4,045.7,0.474,730.3,01.19,0.508
2014-07-06 00:19:00,1746E-3,5C000000,-0724,0836,12267,033.4,045.7,0.474,730.3,01.19,0.508
2014-07-06 00:20:00,1876E-3,5C000000,-0724,0836,12085,033.4,045.7,0.474,730.3,01.19,0.508
2014-07-06 00:21:00,1958E-3,5C000000,-0724,0836,12085,033.5,045.7,0.474,730.3,01.19,0.508
2014-07-06 00:22:00,1950E-3,5C000000,-0724,0836,12139,033.5,045.7,0.474,730.3,01.19,0.508
2014-07-06 00:23:00,1929E-3,5C000000,-0724,0835,12029,033.5,045.7,0.474,730.3,01.19,0.508
2014-07-06 00:24:00,1990E-3,5C000000,-0724,0836,12075,033.5,045.7,0.474,730.2,01.19,0.508
2014-07-06 00:25:00,2022E-3,5C000000,-0724,0836,12288,033.5,045.7,0.474,730.2,01.19,0.508
2014-07-06 00:26:00,1873E-3,5C000000,-0724,0835,12326,033.5,045.7,0.474,730.2,01.19,0.508
2014-07-06 00:27:00,2025E-3,5C000000,-0724,0836,12119,033.5,045.7,0.474,730.2,01.19,0.508
2014-07-06 00:28:00,1942E-3,5C000000,-0724,0836,12177,033.5,045.7,0.474,730.2,01.19,0.508
2014-07-06 00:29:00,1755E-3,5C000000,-0724,0836,12101,033.5,045.7,0.474,730.2,01.19,0.508
2014-07-06 00:30:00,1817E-3,5C000000,-0724,0835,12071,033.5,045.7,0.474,730.3,01.19,0.508
2014-07-06 00:31:00,1881E-3,5C000000,-0724,0836,12254,033.5,045.7,0.474,730.3,01.19,0.508
2014-07-06 00:32:00,1961E-3,5C000000,-0724,0836,12175,033.5,045.7,0.474,730.3,01.19,0.508
2014-07-06 00:33:00,1725E-3,5C000000,-0724,0835,12055,033.5,045.7,0.474,730.2,01.19,0.508
2014-07-06 00:34:00,2000E-3,5C000000,-0724,0837,12117,033.5,045.7,0.473,730.2,01.19,0.508
2014-07-06 00:35:00,1678E-3,5C000000,-0724,0837,12164,033.5,045.7,0.474,730.2,01.19,0.508
2014-07-06 00:36:00,2036E-3,5C000000,-0724,0837,12220,033.6,045.7,0.474,730.2,01.19,0.508
2014-07-06 00:37:00,1788E-3,5C000000,-0724,0837,12099,033.5,045.7,0.474,730.2,01.19,0.508
2014-07-06 00:38:00,1930E-3,5C000000,-0724,0836,11975,033.6,045.7,0.474,730.2,01.19,0.508
2014-07-06 00:39:00,1875E-3,5C000000,-0724,0836,12237,033.6,045.7,0.474,730.2,01.19,0.508
2014-07-06 00:40:00,1898E-3,5C000000,-0724,0835,12186,033.6,045.7,0.474,730.2,01.19,0.508
2014-07-06 00:41:00,1785E-3,5C000000,-0724,0837,12040,033.6,045.7,0.474,730.3,01.19,0.508
2014-07-06 00:42:00,1911E-3,5C000000,-0724,0836,12108,033.6,045.7,0.474,730.3,01.19,0.508
2014-07-06 00:43:00,1773E-3,5C000000,-0724,0836,12199,033.6,045.7,0.474,730.3,01.19,0.508
2014-07-06 00:44:00,1912E-3,5C000000,-0724,0837,12113,033.6,045.7,0.474,730.2,01.19,0.508
2014-07-06 00:45:00,1955E-3,5C000000,-0724,0836,11959,033.6,045.7,0.473,730.2,01.19,0.508
2014-07-06 00:46:00,1996E-3,5C000000,-0724,0836,12046,033.6,045.7,0.473,730.2,01.19,0.508
2014-07-06 00:47:00,1944E-3,5C000000,-0724,0836,12036,033.6,045.7,0.473,730.2,01.19,0.508
2014-07-06 00:48:00,1952E-3,5C000000,-0724,0836,12259,033.6,045.7,0.473,730.2,01.19,0.508
2014-07-06 00:49:00,1887E-3,5C000000,-0724,0836,12127,033.6,045.7,0.473,730.2,01.19,0.508
2014-07-06 00:50:00,1855E-3,5C000000,-0724,0836,12147,033.6,045.7,0.474,730.3,01.19,0.508
2014-07-06 00:51:00,1907E-3,5C000000,-0724,0836,12077,033.6,045.7,0.474,730.2,01.19,0.508
2014-07-06 00:52:00,1906E-3,5C000000,-0724,0836,12016,033.6,045.7,0.474,730.2,01.19,0.508
2014-07-06 00:53:00,1864E-3,5C000000,-0724,0837,12136,033.6,045.7,0.474,730.2,01.19,0.508
2014-07-06 00:54:00,1905E-3,5C000000,-0724,0836,11992,033.7,045.7,0.474,730.2,01.19,0.508
2014-07-06 00:55:00,1836E-3,5C000000,-0724,0837,11998,033.7,045.7,0.474,730.2,01.19,0.508
2014-07-06 00:56:00,1893E-3,5C000000,-0724,0836,12164,033.7,045.7,0.474,730.2,01.19,0.508
2014-07-06 00:57:00,1775E-3,5C000000,-0724,0837,12124,033.7,045.7,0.474,730.2,01.19,0.508
2014-07-06 00:58:00,1913E-3,5C000000,-0724,0836,12142,033.7,045.7,0.474,730.2,01.19,0.508
2014-07-06 00:59:00,1971E-3,5C000000,-0724,0837,12095,033.7,045.7,0.474,730.2,01.19,0.508
2014-07-06 01:00:00,1906E-3,5C000000,-0724,0836,12068,033.7,045.7,0.473,730.2,01.19,0.508
2014-07-06 01:01:00,1924E-3,5C000000,-0724,0837,12152,033.7,045.7,0.473,730.2,01.19,0.508
2014-07-06 01:02:00,2036E-3,5C000000,-0724,0836,12169,033.7,045.7,0.473,730.2,01.19,0.508
2014-07-06 01:03:00,1861E-3,5C000000,-0724,0836,12239,033.7,045.7,0.473,730.2,01.19,0.508
2014-07-06 01:04:00,1945E-3,5C000000,-0724,0837,12027,033.7,045.7,0.473,730.2,01.19,0.508
2014-07-06 01:05:00,2003E-3,5C000000,-0724,0837,11942,033.7,045.7,0.473,730.2,01.19,0.508
2014-07-06 01:06:00,1950E-3,5C000000,-0724,0837,12283,033.7,045.7,0.473,730.2,01.19,0.508
2014-07-06 01:07:00,1794E-3,5C000000,-0724,0837,12206,033.7,045.7,0.473,730.2,01.19,0.508
2014-07-06 01:08:00,2024E-3,5C000000,-0724,0837,12086,033.7,045.7,0.473,730.2,01.19,0.508
2014-07-06 01:09:00,1809E-3,5C000000,-0724,0836,12159,033.7,045.7,0.473,730.2,01.19,0.508
2014-07-06 01:10:00,1956E-3,5C000000,-0724,0836,12021,033.8,045.7,0.473,730.2,01.19,0.508
2014-07-06 01:11:00,2004E-3,5C000000,-0724,0835,12064,033.8,045.7,0.474,730.2,01.19,0.508
2014-07-06 01:12:00,1923E-3,5C000000,-0724,0836,12249,033.8,045.7,0.473,730.2,01.19,0.508
2014-07-06 01:13:00,1915E-3,5C000000,-0724,0837,12134,033.8,045.7,0.474,730.2,01.19,0.508
2014-07-06 01:14:00,1885E-3,5C000000,-0724,0837,12210,033.8,045.7,0.474,730.2,01.19,0.508
2014-07-06 01:15:00,1935E-3,5C000000,-0724,0836,12261,033.8,045.7,0.474,730.2,01.19,0.508
2014-07-06 01:16:00,1852E-3,5C000000,-0724,0836,12153,033.8,045.7,0.474,730.2,01.19,0.508
2014-07-06 01:17:00,1740E-3,5C000000,-0724,0836,12115,033.8,045.7,0.474,730.2,01.19,0.508
2014-07-06 01:18:00,1757E-3,5C000000,-0724,0838,12232,033.8,045.7,0.474,730.2,01.19,0.508
2014-07-06 01:19:00,1931E-3,5C000000,-0724,0837,12290,033.8,045.7,0.474,730.2,01.19,0.508
2014-07-06 01:20:00,1971E-3,5C000000,-0724,0836,12098,033.8,045.7,0.474,730.2,01.19,0.508
2014-07-06 01:21:00,1902E-3,5C000000,-0724,0837,11993,033.8,045.7,0.474,730.2,01.19,0.508
2014-07-06 01:22:00,1930E-3,5C000000,-0724,0836,12018,033.8,045.7,0.474,730.2,01.19,0.508
2014-07-06 01:23:00,1865E-3,5C000000,-0724,0836,12169,033.8,045.7,0.474,730.1,01.19,0.508
2014-07-06 01:24:00,1842E-3,5C000000,-0724,0837,12108,033.8,045.7,0.473,730.2,01.19,0.508
2014-07-06 01:25:00,1855E-3,5C000000,-0724,0836,12099,033.8,045.7,0.474,730.1,01.19,0.508
2014-07-06 01:26:00,1781E-3,5C000000,-0724,0837,11949,033.8,045.7,0.473,730.1,01.19,0.508
2014-07-06 01:27:00,1762E-3,5C000000,-0724,0837,12210,033.9,045.7,0.473,730.1,01.19,0.508
2014-07-06 01:28:00,1853E-3,5C000000,-0724,0836,12238,033.8,045.7,0.473,730.1,01.19,0.508
2014-07-06 01:29:00,1949E-3,5C000000,-0724,0836,12180,033.9,045.7,0.473,730.1,01.19,0.508
2014-07-06 01:30:00,1965E-3,5C000000,-0724,0836,12111,033.9,045.7,0.473,730.1,01.19,0.508
2014-07-06 01:31:00,1813E-3,5C000000,-0724,0836,12141,033.9,045.7,0.473,730.1,01.19,0.508
2014-07-06 01:32:00,1997E-3,5C000000,-0724,0837,12229,033.9,045.7,0.473,730.1,01.19,0.508
2014-07-06 01:33:00,1948E-3,5C000000,-0724,0836,12057,033.9,045.7,0.473,730.1,01.19,0.508
2014-07-06 01:34:00,1928E-3,5C000000,-0724,0836,12062,033.9,045.7,0.473,730.1,01.19,0.508
2014-07-06 01:35:00,1917E-3,5C000000,-0724,0836,12167,033.9,045.7,0.473,730.1,01.19,0.508
2014-07-06 01:36:00,1854E-3,5C000000,-0724,0836,12069,033.9,045.7,0.473,730.1,01.19,0.508
2014-07-06 01:37:00,1752E-3,5C000000,-0724,0836,11966,033.9,045.7,0.473,730.0,01.19,0.508
2014-07-06 01:38:00,1917E-3,5C000000,-0724,0837,12155,033.9,045.7,0.473,730.1,01.19,0.508
2014-07-06 01:39:00,2062E-3,5C000000,-0724,0836,12138,033.9,045.7,0.473,730.1,01.19,0.508
2014-07-06 01:40:00,1876E-3,5C000000,-0724,0837,12217,033.9,045.7,0.473,730.1,01.19,0.508
2014-07-06 01:41:00,1826E-3,5C000000,-0724,0836,12108,033.9,045.7,0.473,730.0,01.19,0.508
2014-07-06 01:42:00,1903E-3,5C000000,-0724,0837,12250,033.9,045.7,0.473,730.1,01.19,0.508
2014-07-06 01:43:00,1878E-3,5C000000,-0724,0836,12225,033.9,045.7,0.473,730.0,01.19,0.508
2014-07-06 01:44:00,1900E-3,5C000000,-0724,0836,12144,033.9,045.7,0.473,730.1,01.19,0.508
2014-07-06 01:45:00,1864E-3,5C000000,-0724,0837,12107,034.0,045.7,0.473,730.0,01.19,0.508
2014-07-06 01:46:00,1926E-3,5C000000,-0724,0837,12120,034.0,045.7,0.473,730.0,01.19,0.508
2014-07-06 01:47:00,1724E-3,5C000000,-0724,0836,12058,034.0,045.7,0.473,730.0,01.19,0.508
2014-07-06 01:48:00,1854E-3,5C000000,-0724,0837,11872,034.0,045.7,0.473,730.0,01.19,0.508
2014-07-06 01:49:00,1922E-3,5C000000,-0724,0837,11997,034.0,045.7,0.473,730.0,01.19,0.508
2014-07-06 01:50:00,1877E-3,5C000000,-0724,0837,12184,034.0,045.7,0.473,730.0,01.19,0.508
2014-07-06 01:51:00,1841E-3,5C000000,-0724,0837,12180,034.0,045.7,0.473,729.9,01.19,0.508
2014-07-06 01:52:00,1917E-3,5C000000,-0724,0837,12158,034.0,045.7,0.473,729.9,01.19,0.508
2014-07-06 01:53:00,1895E-3,5C000000,-0724,0836,12203,034.0,045.7,0.473,729.9,01.19,0.508
2014-07-06 01:54:00,1838E-3,5C000000,-0724,0836,12109,034.0,045.7,0.473,729.9,01.19,0.508
2014-07-06 01:55:00,1993E-3,5C000000,-0724,0837,12091,034.0,045.7,0.473,729.9,01.19,0.508
2014-07-06 01:56:00,1880E-3,5C000000,-0724,0837,12140,034.0,045.7,0.473,729.9,01.19,0.508
2014-07-06 01:57:00,1818E-3,5C000000,-0724,0836,12227,034.0,045.7,0.473,729.9,01.19,0.508
2014-07-06 01:58:00,1949E-3,5C000000,-0724,0837,12055,034.0,045.7,0.473,729.9,01.19,0.508
2014-07-06 01:59:00,1834E-3,5C000000,-0724,0838,12048,034.0,045.7,0.473,729.9,01.19,0.508
2014-07-06 02:00:00,1874E-3,5C000000,-0724,0837,12057,034.1,045.7,0.473,729.9,01.19,0.508
2014-07-06 02:01:00,1841E-3,5C000000,-0724,0837,12070,034.1,045.7,0.473,729.8,01.19,0.508
2014-07-06 02:02:00,1768E-3,5C000000,-0724,0836,12003,034.1,045.7,0.473,729.8,01.19,0.508
2014-07-06 02:03:00,1866E-3,5C000000,-0724,0837,11869,034.1,045.7,0.473,729.8,01.19,0.508
2014-07-06 02:04:00,1859E-3,5C000000,-0724,0836,12217,034.1,045.7,0.473,729.8,01.19,0.508
2014-07-06 02:05:00,1845E-3,5C000000,-0724,0838,11977,034.1,045.7,0.473,729.8,01.19,0.508
2014-07-06 02:06:00,1849E-3,5C000000,-0724,0837,12089,034.1,045.7,0.473,729.8,01.19,0.508
2014-07-06 02:07:00,2042E-3,5C000000,-0724,0837,12000,034.1,045.7,0.472,729.8,01.19,0.508
2014-07-06 02:08:00,1775E-3,5C000000,-0724,0837,12011,034.1,045.7,0.472,729.8,01.19,0.508
2014-07-06 02:09:00,1832E-3,5C000000,-0724,0838,12140,034.1,045.7,0.472,729.8,01.19,0.508
2014-07-06 02:10:00,1782E-3,5C000000,-0724,0838,11906,034.1,045.7,0.472,729.7,01.19,0.508
2014-07-06 02:11:00,1612E-3,5C000000,-0724,0837,12327,034.1,045.7,0.472,729.7,01.19,0.508
2014-07-06 02:12:00,1903E-3,5C000000,-0724,0838,12001,034.1,045.7,0.472,729.7,01.19,0.508
2014-07-06 02:13:00,1981E-3,5C000000,-0724,0837,12188,034.1,045.7,0.472,729.7,01.19,0.508
2014-07-06 02:14:00,1890E-3,5C000000,-0724,0836,12269,034.1,045.7,0.472,729.7,01.19,0.508
2014-07-06 02:15:00,1840E-3,5C000000,-0724,0837,12102,034.2,045.7,0.472,729.7,01.19,0.508
2014-07-06 02:16:00,1838E-3,5C000000,-0724,0837,12140,034.1,045.7,0.473,729.7,01.19,0.508
2014-07-06 02:17:00,1827E-3,5C000000,-0724,0838,12204,034.2,045.7,0.473,729.7,01.19,0.508
2014-07-06 02:18:00,1902E-3,5C000000,-0724,0836,12241,034.2,045.7,0.472,729.7,01.19,0.508
2014-07-06 02:19:00,1842E-3,5C000000,-0724,0838,12169,034.2,045.7,0.472,729.7,01.19,0.508
2014-07-06 02:20:00,1983E-3,5C000000,-0724,0836,12206,034.2,045.7,0.472,729.7,01.19,0.508
2014-07-06 02:21:00,1836E-3,5C000000,-0724,0836,12097,034.1,045.7,0.472,729.7,01.19,0.508
2014-07-06 02:22:00,1898E-3,5C000000,-0724,0838,12306,034.1,045.7,0.473,729.7,01.19,0.508
2014-07-06 02:23:00,1897E-3,5C000000,-0724,0836,12206,034.1,045.7,0.472,729.7,01.19,0.508
2014-07-06 02:24:00,1885E-3,5C000000,-0724,0836,12215,034.1,045.7,0.472,729.7,01.19,0.508
2014-07-06 02:25:00,1911E-3,5C000000,-0724,0837,12068,034.1,045.7,0.472,729.7,01.19,0.508
2014-07-06 02:26:00,2021E-3,5C000000,-0724,0837,12195,034.1,045.7,0.472,729.7,01.19,0.508
2014-07-06 02:27:00,1874E-3,5C000000,-0724,0836,11947,034.1,045.7,0.472,729.7,01.19,0.508
2014-07-06 02:28:00,1990E-3,5C000000,-0724,0837,12049,034.1,045.7,0.472,729.7,01.19,0.508
2014-07-06 02:29:00,1790E-3,5C000000,-0724,0838,11866,034.1,045.7,0.473,729.7,01.19,0.508
2014-07-06 02:30:00,1802E-3,5C000000,-0724,0837,12154,034.1,045.7,0.472,729.7,01.19,0.508
2014-07-06 02:31:00,1971E-3,5C000000,-0724,0836,12191,034.1,045.7,0.473,729.7,01.19,0.508
2014-07-06 02:32:00,1823E-3,5C000000,-0724,0837,12173,034.1,045.7,0.473,729.7,01.19,0.508
2014-07-06 02:33:00,1829E-3,5C000000,-0724,0837,12327,034.1,045.7,0.473,729.7,01.19,0.508
2014-07-06 02:34:00,1827E-3,5C000000,-0724,0837,11995,034.1,045.7,0.473,729.8,01.19,0.508
2014-07-06 02:35:00,1881E-3,5C000000,-0724,0838,12089,034.1,045.7,0.473,729.8,01.19,0.508
2014-07-06 02:36:00,1839E-3,5C000000,-0724,0838,12315,034.1,045.7,0.473,729.7,01.19,0.508
2014-07-06 02:37:00,1798E-3,5C000000,-0724,0836,12285,034.1,045.7,0.473,729.7,01.19,0.508
2014-07-06 02:38:00,1745E-3,5C000000,-0724,0837,12144,034.1,045.7,0.473,729.8,01.19,0.508
2014-07-06 02:39:00,1913E-3,5C000000,-0724,0838,12216,034.1,045.7,0.473,729.8,01.19,0.508
2014-07-06 02:40:00,1792E-3,5C000000,-0724,0837,12213,034.1,045.7,0.473,729.8,01.19,0.508
2014-07-06 02:41:00,1798E-3,5C000000,-0724,0836,12054,034.1,045.7,0.473,729.8,01.19,0.508
2014-07-06 02:42:00,1806E-3,5C000000,-0724,0837,12137,034.1,045.7,0.473,729.8,01.19,0.508
2014-07-06 02:43:00,1921E-3,5C000000,-0724,0838,12246,034.1,045.7,0.473,729.8,01.19,0.508
2014-07-06 02:44:00,1926E-3,5C000000,-0724,0836,12214,034.1,045.7,0.473,729.8,01.19,0.508
2014-07-06 02:45:00,1875E-3,5C000000,-0724,0837,12271,034.1,045.7,0.473,729.8,01.19,0.508
2014-07-06 02:46:00,1856E-3,5C000000,-0724,0837,12063,034.1,045.7,0.473,729.8,01.19,0.508
2014-07-06 02:47:00,1942E-3,5C000000,-0724,0836,12034,034.1,045.7,0.473,729.8,01.19,0.508
2014-07-06 02:48:00,2004E-3,5C000000,-0724,0837,12153,034.1,045.7,0.473,729.8,01.19,0.508
2014-07-06 02:49:00,1835E-3,5C000000,-0724,0836,12169,034.1,045.7,0.473,729.7,01.19,0.508
2014-07-06 02:50:00,1758E-3,5C000000,-0724,0837,12097,034.1,045.7,0.473,729.8,01.19,0.508
2014-07-06 02:51:00,1812E-3,5C000000,-0724,0837,12072,034.1,045.7,0.473,729.7,01.19,0.508
2014-07-06 02:52:00,1957E-3,5C000000,-0724,0836,12016,034.1,045.7,0.472,729.7,01.19,0.508
2014-07-06 02:53:00,1907E-3,5C000000,-0724,0836,12176,034.1,045.7,0.472,729.7,01.19,0.508
2014-07-06 02:54:00,1887E-3,5C000000,-0724,0836,12180,034.0,045.7,0.473,729.7,01.19,0.508
2014-07-06 02:55:00,1894E-3,5C000000,-0724,0836,12163,034.0,045.7,0.473,729.7,01.19,0.508
2014-07-06 02:56:00,1911E-3,5C000000,-0724,0836,12130,034.0,045.7,0.473,729.7,01.19,0.508
2014-07-06 02:57:00,1840E-3,5C000000,-0724,0837,12127,034.0,045.7,0.473,729.7,01.19,0.508
2014-07-06 02:58:00,1828E-3,5C000000,-0724,0837,11906,034.0,045.7,0.473,729.7,01.19,0.508
2014-07-06 02:59:00,1871E-3,5C000000,-0724,0837,12275,034.0,045.7,0.473,729.7,01.19,0.508
2014-07-06 03:00:00,1776E-3,5C000000,-0724,0837,12224,034.0,045.7,0.473,729.7,01.19,0.508
2014-07-06 03:01:00,1858E-3,5C000000,-0724,0837,11965,034.0,045.7,0.473,729.7,01.19,0.508
2014-07-06 03:02:00,1999E-3,5C000000,-0724,0837,12257,034.0,045.7,0.473,729.7,01.19,0.508
2014-07-06 03:03:00,1845E-3,5C000000,-0724,0837,12219,034.0,045.7,0.473,729.7,01.19,0.508
2014-07-06 03:04:00,1792E-3,5C000000,-0724,0836,12336,034.0,045.7,0.473,729.7,01.19,0.508
2014-07-06 03:05:00,1877E-3,5C000000,-0724,0836,12081,034.1,045.7,0.473,729.7,01.19,0.508
2014-07-06 03:06:00,1884E-3,5C000000,-0724,0835,12337,034.1,045.7,0.473,729.7,01.19,0.508
2014-07-06 03:07:00,1891E-3,5C000000,-0724,0837,11924,034.1,045.7,0.473,729.7,01.19,0.508
2014-07-06 03:08:00,1766E-3,5C000000,-0724,0836,12131,034.1,045.7,0.473,729.7,01.19,0.508
2014-07-06 03:09:00,1860E-3,5C000000,-0724,0837,11904,034.1,045.7,0.473,729.7,01.19,0.508
2014-07-06 03:10:00,1953E-3,5C000000,-0724,0836,12118,034.1,045.7,0.473,729.7,01.19,0.508
2014-07-06 03:11:00,1806E-3,5C000000,-0724,0837,12356,034.1,045.7,0.473,729.7,01.19,0.508
2014-07-06 03:12:00,1959E-3,5C000000,-0724,0837,12181,034.1,045.7,0.473,729.7,01.19,0.508
2014-07-06 03:13:00,1992E-3,5C000000,-0724,0836,12198,034.1,045.7,0.473,729.7,01.19,0.508
2014-07-06 03:14:00,1840E-3,5C000000,-0724,0836,12042,034.2,045.7,0.472,729.7,01.19,0.508
2014-07-06 03:15:00,1820E-3,5C000000,-0724,0836,12204,034.2,045.7,0.472,729.6,01.19,0.508
2014-07-06 03:16:00,1880E-3,5C000000,-0724,0836,11993,034.2,045.7,0.472,729.7,01.19,0.508
2014-07-06 03:17:00,1858E-3,5C000000,-0724,0837,12260,034.2,045.7,0.472,729.6,01.19,0.508
2014-07-06 03:18:00,1842E-3,5C000000,-0724,0837,12059,034.2,045.7,0.472,729.6,01.19,0.508
2014-07-06 03:19:00,1801E-3,5C000000,-0724,0836,12216,034.2,045.7,0.473,729.6,01.19,0.508
2014-07-06 03:20:00,1927E-3,5C000000,-0724,0837,12018,034.2,045.7,0.473,729.6,01.19,0.508
2014-07-06 03:21:00,1717E-3,5C000000,-0724,0837,12280,034.2,045.7,0.473,729.6,01.19,0.508
2014-07-06 03:22:00,1962E-3,5C000000,-0724,0837,12107,034.3,045.7,0.473,729.6,01.19,0.508
2014-07-06 03:23:00,1940E-3,5C000000,-0724,0836,12047,034.3,045.7,0.473,729.6,01.19,0.508
2014-07-06 03:24:00,1905E-3,5C000000,-0724,0838,12173,034.3,045.7,0.473,729.6,01.19,0.508
2014-07-06 03:25:00,1834E-3,5C000000,-0724,0836,12055,034.3,045.7,0.473,729.6,01.19,0.508
2014-07-06 03:26:00,1932E-3,5C000000,-0724,0836,12262,034.3,045.7,0.473,729.5,01.19,0.508
2014-07-06 03:27:00,1911E-3,5C000000,-0724,0838,12223,034.3,045.7,0.473,729.5,01.19,0.508
2014-07-06 03:28:00,1747E-3,5C000000,-0724,0838,12232,034.3,045.7,0.472,729.5,01.19,0.508
2014-07-06 03:29:00,1695E-3,5C000000,-0724,0836,12082,034.3,045.7,0.472,729.5,01.19,0.508
2014-07-06 03:30:00,1882E-3,5C000000,-0724,0836,11794,034.4,045.7,0.472,729.5,01.19,0.508
2014-07-06 03:31:00,1893E-3,5C000000,-0724,0837,12074,034.4,045.7,0.472,729.5,01.19,0.508
2014-07-06 03:32:00,1795E-3,5C000000,-0724,0836,12012,034.4,045.7,0.472,729.5,01.19,0.508
2014-07-06 03:33:00,1928E-3,5C000000,-0724,0837,12125,034.4,045.7,0.472,729.5,01.19,0.508
2014-07-06 03:34:00,1807E-3,5C000000,-0724,0837,12089,034.4,045.7,0.472,729.5,01.19,0.508
2014-07-06 03:35:00,1951E-3,5C000000,-0724,0836,11966,034.4,045.7,0.472,729.5,01.19,0.508
2014-07-06 03:36:00,1884E-3,5C000000,-0724,0837,12117,034.4,045.7,0.472,729.5,01.19,0.508
2014-07-06 03:37:00,1936E-3,5C000000,-0724,0837,12245,034.5,045.7,0.472,729.5,01.19,0.508
2014-07-06 03:38:00,1850E-3,5C000000,-0724,0837,12166,034.5,045.7,0.472,729.5,01.19,0.508
2014-07-06 03:39:00,1869E-3,5C000000,-0724,0837,12146,034.5,045.7,0.472,729.5,01.19,0.508
2014-07-06 03:40:00,1868E-3,5C000000,-0724,0836,12064,034.5,045.7,0.472,729.4,01.19,0.508
2014-07-06 03:41:00,1878E-3,5C000000,-0724,0837,12186,034.5,045.7,0.472,729.4,01.19,0.508
2014-07-06 03:42:00,1896E-3,5C000000,-0724,0836,12213,034.5,045.7,0.472,729.4,01.19,0.508
2014-07-06 03:43:00,1908E-3,5C000000,-0724,0837,12196,034.5,045.7,0.472,729.4,01.19,0.508
2014-07-06 03:44:00,1930E-3,5C000000,-0724,0836,11945,034.6,045.7,0.472,729.4,01.19,0.508
2014-07-06 03:45:00,1841E-3,5C000000,-0724,0836,12185,034.6,045.7,0.472,729.4,01.19,0.508
2014-07-06 03:46:00,1829E-3,5C000000,-0724,0837,12018,034.6,045.7,0.472,729.4,01.19,0.508
2014-07-06 03:47:00,1853E-3,5C000000,-0724,0837,12004,034.6,045.7,0.472,729.4,01.19,0.508
2014-07-06 03:48:00,1995E-3,5C000000,-0724,0836,12161,034.6,045.7,0.472,729.4,01.19,0.508
2014-07-06 03:49:00,1876E-3,5C000000,-0724,0836,12155,034.6,045.7,0.472,729.4,01.19,0.508
2014-07-06 03:50:00,1853E-3,5C000000,-0724,0836,12169,034.6,045.7,0.472,729.4,01.19,0.508
2014-07-06 03:51:00,1948E-3,5C000000,-0724,0836,11894,034.6,045.7,0.472,729.4,01.19,0.508
2014-07-06 03:52:00,1841E-3,5C000000,-0724,0837,11760,034.6,045.7,0.471,729.3,01.19,0.508
2014-07-06 03:53:00,1860E-3,5C000000,-0724,0837,12028,034.7,045.7,0.471,729.4,01.19,0.508
2014-07-06 03:54:00,1849E-3,5C000000,-0724,0837,12078,034.7,045.7,0.471,729.4,01.19,0.508
2014-07-06 03:55:00,1688E-3,5C000000,-0724,0836,12128,034.7,045.7,0.472,729.4,01.19,0.508
2014-07-06 03:56:00,1844E-3,5C000000,-0724,0836,12150,034.7,045.7,0.472,729.4,01.19,0.508
2014-07-06 03:57:00,1866E-3,5C000000,-0724,0837,12103,034.7,045.7,0.472,729.4,01.19,0.508
2014-07-06 03:58:00,1819E-3,5C000000,-0724,0837,12065,034.7,045.7,0.472,729.4,01.19,0.508
2014-07-06 03:59:00,1916E-3,5C000000,-0724,0837,12201,034.7,045.7,0.472,729.4,01.19,0.508
2014-07-06 04:00:00,1704E-3,5C000000,-0724,0837,12237,034.8,045.7,0.471,729.4,01.19,0.508
2014-07-06 04:01:00,1789E-3,5C000000,-0724,0837,12302,034.8,045.7,0.471,729.4,01.19,0.508
2014-07-06 04:02:00,1721E-3,5C000000,-0724,0836,12146,034.8,045.7,0.471,729.4,01.19,0.508
2014-07-06 04:03:00,1982E-3,5C000000,-0724,0836,12033,034.8,045.7,0.471,729.4,01.19,0.508
2014-07-06 04:04:00,1936E-3,5C000000,-0724,0835,12218,034.8,045.7,0.472,729.4,01.19,0.508
2014-07-06 04:05:00,1902E-3,5C000000,-0724,0836,12115,034.8,045.7,0.472,729.3,01.19,0.508
2014-07-06 04:06:00,1802E-3,5C000000,-0724,0838,12108,034.8,045.7,0.472,729.4,01.19,0.508
2014-07-06 04:07:00,1975E-3,5C000000,-0724,0837,11916,034.8,045.7,0.471,729.4,01.19,0.508
2014-07-06 04:08:00,1794E-3,5C000000,-0724,0837,12188,034.9,045.7,0.471,729.4,01.19,0.508
2014-07-06 04:09:00,1968E-3,5C000000,-0724,0837,12115,034.9,045.7,0.471,729.3,01.19,0.508
2014-07-06 04:10:00,1920E-3,5C000000,-0724,0836,12177,034.9,045.7,0.472,729.3,01.19,0.508
2014-07-06 04:11:00,2000E-3,5C000000,-0724,0837,12075,034.9,045.7,0.472,729.3,01.19,0.508
2014-07-06 04:12:00,1785E-3,5C000000,-0724,0835,12192,034.9,045.7,0.472,729.3,01.19,0.508
2014-07-06 04:13:00,1917E-3,5C000000,-0724,0836,12265,034.9,045.7,0.471,729.3,01.19,0.508
2014-07-06 04:14:00,1950E-3,5C000000,-0724,0837,12130,034.9,045.7,0.471,729.3,01.19,0.508
2014-07-06 04:15:00,1809E-3,5C000000,-0724,0836,12203,034.9,045.7,0.471,729.3,01.19,0.508
2014-07-06 04:16:00,1909E-3,5C000000,-0724,0837,12130,034.9,045.7,0.471,729.2,01.19,0.508
2014-07-06 04:17:00,1855E-3,5C000000,-0724,0837,12083,035.0,045.7,0.472,729.2,01.19,0.508
2014-07-06 04:18:00,1853E-3,5C000000,-0724,0836,12375,035.0,045.7,0.472,729.2,01.19,0.508
2014-07-06 04:19:00,1929E-3,5C000000,-0724,0836,12096,035.0,045.7,0.471,729.3,01.19,0.508
2014-07-06 04:20:00,1873E-3,5C000000,-0724,0837,11919,035.0,045.7,0.471,729.2,01.19,0.508